Погода в Петах-Тикве

Израиль     32°05′10″N   34°53′13″E
темп.,
°C
ветер,
м/с
пор.,
м/с
влажн.,
%
обл.,
%
осадки,
мм/ч
давл.,
гПа
погр.,
м
6 мая, чт
чт600:00+21ююз224430 0.0 101223
03:00+19ююз22535 0.0 101224
06:00+19ююв225410 0.0 101321
09:00+23юз334298 0.0 1015551
12:00+29з562299 0.0 10141120
15:00+29з56198 0.0 1013976
18:00+25сз563099 0.0 1014702
21:00+21зюз01498 0.0 101440
7 мая, пт
пт700:00+20юв22413 0.0 101418
03:00+19ю224511 0.0 101420
06:00+19ю23443 0.0 101419
09:00+24юз343781 0.0 1014598
12:00+29з65280 0.0 10131224
15:00+28зсз76325 0.0 10131127
18:00+25сз45400 0.0 1013669
21:00+20с11631 0.0 101541
8 мая, сб
сб800:00+19вюв11630 0.0 101422
03:00+18всв11630 0.0 101312
06:00+17вюв11680 0.0 101412
09:00+24сз11370 0.0 1014413
12:00+31зсз22185 0.0 10131031
15:00+33сз64195 0.0 1012965
18:00+30с44325 0.0 1012389
21:00+25с23435 0.0 101224
9 мая, вс
вс900:00+25вюв22345 0.0 101111
03:00+26вюв332587 0.0 100911
06:00+27юв222187 0.0 100913
09:00+33ссв221554 0.0 1010290
12:00+39з4510100 0.0 10101341
15:00+38зсз6610100 0.0 10091084
18:00+35зсз3413100 0.0 100898
21:00+29вюв3324100 0.0 100944
10 мая, пн
пн1000:00+26юв333094 0.0 101057
03:00+25сз113596 0.0 100922
06:00+23с114297 0.0 100913
09:00+32з1120100 0.0 1009322
12:00+33зюз4426100 0.1 1009808
15:00+32зсз753229 0.1 1007596
18:00+29сз22377 0.0 1007460
21:00+24юз1156100 0.0 100826